Showing default

KUIPER-00260, 67787

Orbit data source: Space-Track

KUIPER-00260, 67787 is a payload satellite owned by Kuiper Systems (US) in LEO that was launched on Thu, 12 Feb 2026 UTC via an ARIANE 64 launch vehicle from the French Guiana (FRGUI). Payload-class satellites include a variety of spacecraft equipped with specific instruments for various scientific and technological missions. These include communications satellites like Starlink; space stations such as the ISS; scientific satellites like the Hubble; Earth observation satellites from companies like Planet Labs, Umbra, and HawkEye 360; GPS; miniature CubeSats for education and research; and military/defense satellites.

Loading next visibility...
Identifier
67787, 2026-030Z
Orbit
LEO
Country
Flag of USUS
Related business
Manufacturer
Kuiper Systems
Mission
Operational Commercial Communications
Bus & Motor
KUIPER, Unknown motor
Mass
~490 kg wet, ~490 kg dry
Launch date (UTC)
2026-02-12 (4 months ago)
Launch vehicle
ARIANE 64
Launch site
French Guiana (FRGUI)
Object type
Payload
Rocket body
Debris
Shape & HBR
Box + 2 Pan, 3.4 m
Radar Cross Section
2.326 m², Large (>1 m²)

Expand to show TLE details & history
Last TLE update: 16 hours ago

TLE from 16 hours ago
0 KUIPER-00260
1 67787U 26030Z   26171.18091677  .00002278  00000-0  32760-3 0  9992
2 67787  51.9013 102.4929 0001291 101.8686 258.2422 14.79949624 20503
Epoch: 2026-06-20T04:20Z
TLE epoch observation values (Epoch: 2026-06-20T04:20:31.208Z)
Latitude
0.00002°
Longitude
128.96365°
Altitude
630.414 km
Speed
7.544 km/s
True Right ascension
06h 49m 58s
True Declination
0° 00' 00"
Sunlit
Object was in daylight at epoch
Visualization orbit readout
Latitude
Unknown
Longitude
Unknown
Altitude
Unknown
Speed
Unknown
Apparent Right ascension
Unknown
Apparent Declination
Unknown
Sunlit
N/A
Visualization observer readout
Local Sidereal Time
07:19:44
Azimuth
Unknown
Elevation
Unknown
Doppler factor
Unknown
Orbital elements
Apogee altitude
630.839 km
Perigee altitude
629.029 km
Semi-major axis
7,008.071 km
Eccentricity
0.00013
Inclination
51.9013°
RAAN
102.4929°
Arg. of periapsis
101.8686°
True anomaly
258.22772°
Mean anomaly
258.2422°
Eccentric anomaly
258.23496°
Mean motion
3.69952 °/min
Orbital period
97.31 mins
BSTAR
0.0003276
Loading maneuver chart data...
Computing Atmospheric mass density...
Loading historical data...
Loading historical data...
Loading historical data...
Loading historical data...
Loading historical data...
Loading historical data...
Loading historical data...

Documentation

Showing up to 5 results
|